STARLINK-38082, 69993

Orbit data source: Space-Track

STARLINK-38082, 69993 is a payload satellite owned by SpaceX/Seattle (US) in SSO that was launched on Sat, 11 Jul 2026 UTC via an FALCON 9 launch vehicle from the Air Force Western Test Range (AFWTR). Payload-class satellites include a variety of spacecraft equipped with specific instruments for various scientific and technological missions. These include communications satellites like Starlink; space stations such as the ISS; scientific satellites like the Hubble; Earth observation satellites from companies like Planet Labs, Umbra, and HawkEye 360; GPS; miniature CubeSats for education and research; and military/defense satellites.

Loading next visibility...
Identifier
69993, 2026-159U
Orbit
SSO
Country
Flag of USUS
Related business
Manufacturer
SpaceX/Seattle
Mission
Operational spacecraft
Bus & Motor
STARLINK V2MO, Unknown motor
Mass
575 kg wet, ~530 kg dry
Launch date (UTC)
2026-07-11 (2 months ago)
Launch vehicle
FALCON 9
Launch site
Air Force Western Test Range (AFWTR)
Object type
Payload
Rocket body
Debris
Shape & HBR
BOX + PAN, 17.7 m
Radar Cross Section
Large (>1 m²)

Expand to show TLE details & history
Last TLE update: 12 hours ago

TLE from 12 hours ago
0 STARLINK-38082
1 69993U 26159U   26264.58335648  .00006353  00000-0  17794-3 0  9999
2 69993  97.2840 106.3816 0001126  82.3995 248.0442 15.36968731  6008
Epoch: 2026-09-21T14:00Z
TLE epoch observation values (Epoch: 2026-09-21T14:00:01.999Z)
Latitude
-29.5723°
Longitude
-99.9516°
Altitude
466.561 km
Speed
7.632 km/s
True Right ascension
07h 22m 04s
True Declination
-29° 25' 07"
Sunlit
Object was in daylight at epoch
Visualization orbit readout
Latitude
Unknown
Longitude
Unknown
Altitude
Unknown
Speed
Unknown
Apparent Right ascension
Unknown
Apparent Declination
Unknown
Sunlit
N/A
Visualization observer readout
Local Sidereal Time
18:36:58
Azimuth
Unknown
Elevation
Unknown
Doppler factor
Unknown
Orbital elements
Apogee altitude
452.786 km
Perigee altitude
451.248 km
Semi-major axis
6,830.154 km
Eccentricity
0.00011
Inclination
97.284°
RAAN
106.3816°
Arg. of periapsis
82.3995°
True anomaly
248.03223°
Mean anomaly
248.0442°
Eccentric anomaly
248.03822°
Mean motion
3.84501 °/min
Orbital period
93.63 mins
BSTAR
0.00017794
Loading maneuver chart data...
Computing Atmospheric mass density...
Loading historical data...
Loading historical data...
Loading historical data...
Loading historical data...
Loading historical data...
Loading historical data...
Loading historical data...

Documentation

Showing up to 5 results
|